Location: Bryzozowice
(50.3667°N, 18.9667°E)
Time: 09:16:25
(UTC+00:00)

CZ-4B R/B - Pass Details

Date: 24 January 2020
Orbit: 393 x 467 km, 97.6° (Epoch: 27 February)

Event Time Altitude Azimuth Distance (km) Brightness Sun altitude
Rises 16:23:54 0° 357° (N) 2,315 4.8 -9.7°
Reaches altitude 10° 16:26:29 10° 333° (NNW) 1,446 4.1 -10.1°
Maximum altitude 16:28:17 15° 297° (WNW) 1,191 4.2 -10.4°
Drops below altitude 10° 16:30:05 10° 261° (W) 1,438 5.5 -10.7°
Sets 16:32:38 0° 236° (WSW) 2,293 6.6 -11.1°
